Location: ??
(35.5052°N, 139.7262°E)
Time: 15:47:50
(UTC+00:00)

Meteor 1-10 Rocket - Pass Details

Date: 20 June 2021
Orbit: 835 x 911 km, 81.3° (Epoch: 30 July)

Event Time Altitude Azimuth Distance (km) Brightness Sun altitude
Rises 17:54:38 0° 353° (N) 3,520 8.0 -15.6°
Reaches altitude 10° 17:57:08 10° 355° (N) 2,567 7.3 -15.3°
Maximum altitude 18:02:58 74° 81° (E) 914 4.5 -14.4°
Drops below altitude 10° 18:08:39 10° 166° (SSE) 2,500 6.4 -13.6°
Sets 18:11:03 0° 168° (SSE) 3,422 7.1 -13.2°
